Regional Weather Roundup
Issued by NWS

Home | Current Version | Previous Version | Text Only | Print | Product List | Glossary Off
Versions: 1 2 3 4 5 6 7 8 9 10 11 12 13 14 15 16 17 18 19 20 21 22 23 24 25 26 27 28 29 30 31 32 33 34 35 36 37 38 39 40 41 42 43 44 45 46 47 48 49 50

000
ASUS43 KOAX 282302
RWRNE

WEATHER ROUNDUP FOR NEBRASKA
NATIONAL WEATHER SERVICE OMAHA NE
600 PM CDT FRI AUG 28 2015

NOTES: SATELLITE DATA IS BEING USED TO AUGMENT CLOUD COVER ABOVE
       12000 FEET.
       "FAIR" INDICATES FEW OR NO CLOUDS BELOW 12,000 FEET WITH NO
       SIGNIFICANT WEATHER AND/OR OBSTRUCTIONS TO VISIBILITY.

  * THESE STATIONS DO NOT REPORT WEATHER SUCH AS RAIN...SNOW OR FOG.

NEZ001>004-019>022-054>056-290000-
NEBRASKA PANHANDLE

CITY           SKY/WX    TMP DP  RH WIND       PRES   REMARKS
SCOTTSBLUFF    SUNNY     88  41  19 N7        30.10R
ALLIANCE       SUNNY     86  48  26 N8        30.09S
CHADRON        SUNNY     89  45  21 CALM      30.04S HAZE
KIMBALL        SUNNY     82  43  25 N8        30.15S
SIDNEY         SUNNY     86  44  23 N13G23    30.13R
$$

NEZ057>060-069>072-079>082-290000-
SOUTHWEST NEBRASKA

CITY           SKY/WX    TMP DP  RH WIND       PRES   REMARKS
NORTH PLATTE   SUNNY     81  62  52 N12       30.01S
IMPERIAL       MOSUNNY   88  53  30 NE9G22    30.04R
LEXINGTON      SUNNY     79  63  56 N10       29.99S
MCCOOK         SUNNY     85  59  41 N15       29.99S
OGALLALA       SUNNY     88  53  30 NE13      30.04R
$$

NEZ005>010-023>029-035>040-094-290000-
NORTH CENTRAL NEBRASKA

CITY           SKY/WX    TMP DP  RH WIND       PRES   REMARKS
VALENTINE      SUNNY     81  60  48 N5        30.01F
AINSWORTH      SUNNY     76  64  67 NE5       30.03S
BROKEN BOW     MOSUNNY   79  61  53 N9        30.00S
O`NEILL        MOSUNNY   75  64  68 N6        30.00R
ORD            CLOUDY    75  61  61 N8        29.98R
THEDFORD       SUNNY     80  62  54 NE8       30.04S
$$

NEZ041-046>049-061>064-073>077-083>087-290000-
SOUTH CENTRAL NEBRASKA

CITY           SKY/WX    TMP DP  RH WIND       PRES   REMARKS
GRAND ISLAND   CLOUDY    74  61  63 N16       29.97R
AURORA         CLOUDY    73  64  75 N14       29.96R
HASTINGS       PTSUNNY   75  62  64 N16       29.96R
HEBRON         CLOUDY    76  62  62 N14       29.93R
HOLDREGE       MOSUNNY   77  62  59 N10G16    29.98S
KEARNEY *      MOSUNNY   79  59  50 N17G24    29.97S
YORK           CLOUDY    72  64  78 N7        29.94R
$$

NEZ011>018-030>034-042>045-290000-
NORTHEAST NEBRASKA

CITY           SKY/WX    TMP DP  RH WIND       PRES   REMARKS
NORFOLK        MOSUNNY   74  62  66 N21G30    29.93R
ALBION         MOSUNNY   74  62  67 N16       29.96S
BLAIR          CLOUDY    70  64  80 NW8       29.88S
COLUMBUS *     CLOUDY   N/A N/A N/A N8        29.92S
FREMONT        CLOUDY    71  64  78 N9        29.90R
TEKAMAH        LGT RAIN  68  66  93 N12       29.88R FOG
WAYNE          PTSUNNY   70  62  77 N16G23    29.93R
$$

NEZ050>053-065>068-078-088>093-290000-
SOUTHEAST NEBRASKA

CITY           SKY/WX    TMP DP  RH WIND       PRES   REMARKS
LINCOLN        CLOUDY    74  64  71 NW13      29.91R
OMAHA EPPLEY   PTSUNNY   75  66  73 NW10      29.86R
BEATRICE       CLOUDY    75  66  74 NW12      29.90R
FALLS CITY     CLOUDY    79  73  82 CALM      29.84S
NEBRASKA CITY  CLOUDY    73  66  77 NW9       29.87S
PLATTSMOUTH    CLOUDY    73  64  73 NW9       29.87S
$$

NEZ044-045-051>053-067-290000-
OMAHA AREA

CITY           SKY/WX    TMP DP  RH WIND       PRES   REMARKS
OMAHA EPPLEY   PTSUNNY   75  66  73 NW10      29.86R
BLAIR          CLOUDY    70  64  80 NW8       29.88S
FREMONT        CLOUDY    71  64  78 N9        29.90R
MILLARD        CLOUDY    73  65  76 NW13      29.87R
OFFUTT AFB     PTSUNNY   74  65  72 W13       29.85S
PLATTSMOUTH    CLOUDY    73  64  73 NW9       29.87S
WAHOO          CLOUDY    71  65  82 NW9       29.89S
$$



USA.gov is the U.S. government's official web portal to all federal, state and local government web resources and services.